User: anonymous
Location: Bowman Observatory
(41.0326°N, 73.6210°W)
Time: 16:05:49
(UTC-04:00)
Language:

Cosmos 2298 Rocket - Orbit

View from above orbital plane
View from above orbital plane
View from above satellite
View from above satellite

Ground track
Ground track

The orbit data is extracted from the following two-line orbital elements,

1 23432U 94083B   14240.91206672  .00000093  00000-0  43091-4 0  9197
2 23432 074.0352 008.9890 0004360 104.6569 029.4392 14.33277613 29686
Epoch (UTC): 28 August 2014 21:53:22
Eccentricity: 0.0004360
inclination: 74.0352°
perigee height: 777 km
apogee height: 784 km
right ascension of ascending node: 8.9890°
argument of perigee: 104.6569°
revolutions per day: 14.33277613
mean anomaly at epoch: 29.4392°
orbit number at epoch: 2968

The dashed part of the orbit path shows where the satellite is in the earth's shadow,  

DLR